Hourly Data Report for October 25, 2016

All times are specified in Local Standard Time (LST). Add 1 hour to adjust for Daylight Saving Time where and when it is observed.

BATHURST A
NEW BRUNSWICK

47°37'47.000" N
65°44'20.000" W
58.80 m
8100505
71574
ZBF

Download Data

Hourly Data (October 2016)
Hourly Data Report for October 25, 2016
Temp Definition
°C
Dew Point Temp Definition
°C
Rel Hum Definition
%
Wind Dir Definition
10's deg

Wind Spd Definition
km/h
Visibility Definition
km
Stn Press Definition
kPa
Hmdx Definition


Wind Chill Definition


Weather Definition


TIME
00:00 Legend Double Dagger 3.5 -0.5 75 25 11 24.1 99.51     LegendNANA
01:00 Legend Double Dagger 3.4 -0.3 77 26 11 24.1 99.55     LegendNANA
02:00 Legend Double Dagger 3.1 0.2 81 26 13 24.1 99.58     Cloudy
03:00 Legend Double Dagger 2.8 0.5 85 26 14 11.3 99.60     Rain Showers
04:00 Legend Double Dagger 2.7 0.4 85 26 12 11.3 99.62     Rain Showers
05:00 Legend Double Dagger 2.8 0.5 85 27 10 11.3 99.64     Cloudy
06:00 Legend Double Dagger 2.6 0.8 88 30 12 11.3 99.68     Rain Showers
07:00 Legend Double Dagger 2.6 1.0 89 28 9 19.3 99.76     Snow Showers
08:00 Legend Double Dagger 2.9 1.1 88 28 8 12.9 99.86     Rain,Snow
09:00 Legend Double Dagger 3.0 1.8 92 30 7 11.3 99.93     Rain
10:00 Legend Double Dagger 3.8 2.9 94 31 9 9.7 99.99     Rain,Fog
11:00 Legend Double Dagger 4.7 3.8 94 33 7 9.7 100.04     Rain,Fog
12:00 Legend Double Dagger 5.2 4.5 95 3 7 8.1 100.10     Rain,Fog
13:00 Legend Double Dagger 5.0 4.3 95 35 9 8.1 100.16     Rain,Fog
14:00 Legend Double Dagger 6.0 5.1 94 2 5 16.1 100.23     Rain Showers
15:00 Legend Double Dagger 5.3 4.3 93 36 5 8.1 100.33     Moderate Rain Showers,Fog
16:00 Legend Double Dagger 4.6 3.6 93 34 3 8.1 100.42     Rain Showers,Fog
17:00 Legend Double Dagger 4.6 3.4 92 32 3 9.7 100.51     Rain Showers,Fog
18:00 Legend Double Dagger 4.9 2.9 87 4 10 9.7 100.63     Rain Showers,Fog
19:00 Legend Double Dagger 4.3 2.7 89 2 11 9.7 100.75     Rain Showers,Fog
20:00 Legend Double Dagger 4.1 2.0 86 2 11 11.3 100.85     Rain Showers
21:00 Legend Double Dagger 4.2 1.6 83 2 11 11.3 100.95     Rain Showers
22:00 Legend Double Dagger 4.0 1.4 83 2 10 11.3 101.03     Rain Showers
23:00 Legend Double Dagger 4.0 1.0 81 2 7 11.3 101.09     Rain

Notes on Data Quality.

Legend

  • E = Estimated
  • M = Missing
  • NA = Not Available
  • ‡ = Partner data that is not subject to review by the National Climate Archives
Date modified: